SCD 1 1 22490U 93009B 24263.48863951 .00000882 00000-0 19236-3 0 9991 2 22490 24.9688 171.0461 0042234 252.3187 269.2412 14.45449763669014 TECHSAT 1B 1 25397U 98043D 24263.38573339 .00000322 00000-0 15977-3 0 9997 2 25397 98.9336 231.5658 0000459 188.5820 171.5351 14.24126432360827 SCD 2 1 25504U 98060A 24263.69676118 .00000984 00000-0 22628-3 0 9994 2 25504 24.9964 29.8199 0016657 249.6834 133.2387 14.44928164368659 LANDSAT 7 1 25682U 99020A 24263.89406431 .00001336 00000-0 28167-3 0 9995 2 25682 97.8838 286.2059 0001790 86.4296 34.8871 14.60949339353024 TUBSAT 1 25757U 99029B 24263.64431389 .00000533 00000-0 14357-3 0 9994 2 25757 98.5981 229.7091 0015336 121.1372 239.1329 14.52009097341108 QUIKSCAT 1 25789U 99034A 24263.51604892 .00001307 00000-0 32371-3 0 9998 2 25789 98.3556 140.1079 0098521 71.5817 289.6058 14.50726077320311 TERRA 1 25994U 99068A 24263.82111390 .00001518 00000-0 32576-3 0 9994 2 25994 98.0389 324.4992 0003570 78.2585 54.5696 14.59999436316971 MAROC TUBSAT 1 27004U 01056D 24263.37698017 -.00000010 00000-0 41229-4 0 9997 2 27004 99.7473 58.9661 0019437 334.4306 54.4852 13.70216353139110 AQUA 1 27424U 02022A 24263.83156025 .00003033 00000-0 64323-3 0 9992 2 27424 98.3385 213.6224 0001743 106.7255 275.3391 14.59905418190521 IRS P6 1 28051U 03046A 24263.83385904 .00000945 00000-0 33336-3 0 9995 2 28051 98.2842 317.4654 0065949 86.3842 44.3277 14.35636962 89374 TANSUO 1 1 28220U 04012A 24263.37823110 .00013835 00000-0 75666-3 0 9996 2 28220 97.9583 295.2514 0010374 76.3963 283.8422 15.14353500114231 ROCSAT 2 1 28254U 04018A 24263.74887963 .00000055 00000-0 64880-4 0 9993 2 28254 98.7661 243.0212 0001661 344.3941 190.5740 14.01139824 39805 AURA 1 28376U 04026A 24263.81730539 .00002921 00000-0 63028-3 0 9997 2 28376 98.2574 208.0503 0002302 102.6490 257.4967 14.59127689 73518 CARTOSAT-1 1 28649U 05017A 24263.60213933 .00003933 00000-0 43714-3 0 9996 2 28649 97.6051 303.1608 0002159 63.3063 296.8375 14.87712904 49194 SINAH 1 1 28893U 05043D 24263.58710283 .00001575 00000-0 31595-3 0 9997 2 28893 98.2056 26.7916 0015877 106.4689 253.8258 14.63020218 7541 EROS B 1 29079U 06014A 24263.86587987 .00032571 00000-0 16770-2 0 9994 2 29079 97.3394 15.0749 0007849 255.7689 104.2673 15.16311624 21893 RESURS DK-1 1 29228U 06021A 24263.62887662 .00004856 00000-0 31958-3 0 9996 2 29228 69.9359 179.3786 0007192 242.9647 117.0783 15.08199408 6569 KOMPSAT 2 1 29268U 06031A 24263.86835830 .00001036 00000-0 20706-3 0 9993 2 29268 97.8553 107.7886 0013407 290.6989 125.3283 14.63769556968594 LAPAN-TUBSAT 1 29709U 07001A 24263.86710118 .00002041 00000-0 24933-3 0 9995 2 29709 98.0800 240.2025 0014099 92.9191 267.3636 14.84365248956854 HAIYANG 1B 1 31113U 07010A 24263.44367077 .00000344 00000-0 14742-3 0 9994 2 31113 98.3010 261.1939 0012365 288.7713 71.2128 14.30691171909716 SKYMED 1 1 31598U 07023A 24263.78566765 .00001616 00000-0 20941-3 0 9998 2 31598 97.8897 85.5602 0001377 88.7052 271.4319 14.82169495935216 TERRA SAR X 1 31698U 07026A 24262.44319516 .00004782 00000-0 23076-3 0 9993 2 31698 97.4461 268.2771 0001985 84.8756 275.2705 15.19147871956556 WORLDVIEW 1 1 32060U 07041A 24263.87061039 .00018200 00000-0 74139-3 0 9992 2 32060 97.3859 21.7769 0008628 285.9104 74.1182 15.24497295946223 YAOGAN 3 1 32289U 07055A 24263.84319977 .00004952 00000-0 57057-3 0 9993 2 32289 97.8825 288.2766 0001620 82.7078 277.4321 14.86149928911385 SKYMED 2 1 32376U 07059A 24263.81941038 .00001692 00000-0 21893-3 0 9997 2 32376 97.8896 85.5884 0001435 86.2408 273.8969 14.82168520907961 RADARSAT 2 1 32382U 07061A 24263.84237374 .00000211 00000-0 98849-4 0 9993 2 32382 98.5810 268.8572 0001174 89.5735 270.5582 14.29980419875263 CARTOSAT 2A 1 32783U 08021A 24263.84207876 .00002372 00000-0 32972-3 0 9993 2 32783 97.8561 320.1146 0012132 18.5123 341.6527 14.78719917884997 JASON 2 1 33105U 08032A 24263.56893772 -.00000042 00000-0 81573-4 0 9994 2 33105 66.0405 307.4193 0008012 267.9654 206.2954 12.87673240761868 RAPIDEYE 2 1 33312U 08040A 24263.60851865 .00005338 00000-0 42086-3 0 9992 2 33312 97.4939 304.9294 0015985 212.9839 147.0389 15.01061302870587 RAPIDEYE 5 1 33313U 08040B 24263.38885321 .00004745 00000-0 39648-3 0 9993 2 33313 97.4792 298.4012 0016121 86.1296 274.1771 14.98876120870125 RAPIDEYE 1 1 33314U 08040C 24263.38523511 .00003891 00000-0 31971-3 0 9996 2 33314 97.4976 305.6404 0025057 202.4655 157.5474 14.99493852870230 RAPIDEYE 3 1 33315U 08040D 24263.52211144 .00004446 00000-0 33893-3 0 9991 2 33315 97.4702 307.0878 0013116 58.0827 302.1672 15.02465807870667 RAPIDEYE 4 1 33316U 08040E 24263.21887310 .00003484 00000-0 28290-3 0 9998 2 33316 97.4901 303.1649 0006227 80.9921 279.2008 15.00239118870283 HJ-1A 1 33320U 08041A 24263.86742210 .00004001 00000-0 52478-3 0 9995 2 33320 97.6344 266.2572 0021774 64.7843 295.5624 14.80677718864368 HJ-1B 1 33321U 08041B 24263.85748035 .00002910 00000-0 37914-3 0 9991 2 33321 97.6281 270.7542 0039779 105.9670 254.5931 14.80768677864389 GEOEYE 1 1 33331U 08042A 24263.85641750 .00001809 00000-0 35262-3 0 9999 2 33331 98.1276 335.0225 0004312 248.9599 111.1143 14.64202502857170 THEOS 1 33396U 08049A 24263.86014582 .00000271 00000-0 14740-3 0 9995 2 33396 98.6487 327.6669 0001032 87.6577 272.4717 14.20043324827812 SKYMED 3 1 33412U 08054A 24263.79420930 .00007636 00000-0 63197-3 0 9992 2 33412 97.8710 101.3665 0014844 260.1805 99.7742 14.99098631861454 YAOGAN 4 1 33446U 08061A 24263.87439680 .00003147 00000-0 41782-3 0 9997 2 33446 97.8811 193.9941 0014354 345.2312 14.8479 14.80432627851564 GOSAT (IBUKI) 1 33492U 09002A 24263.54906140 .00002611 00000-0 46846-3 0 9999 2 33492 98.0464 13.3303 0000879 96.1928 263.9377 14.67563461838230 YAOGAN 6 1 34839U 09021A 24263.83756615 .00042612 00000-0 64766-3 0 9994 2 34839 97.1813 231.0194 0015129 175.2499 184.8902 15.54310876858129 DEIMOS 1 1 35681U 09041A 24263.79203052 .00001856 00000-0 29176-3 0 9990 2 35681 97.6847 80.6866 0002735 84.8822 275.2699 14.73654379813246 DUBAISAT 1 1 35682U 09041B 24263.84121763 .00003485 00000-0 55962-3 0 9997 2 35682 97.9208 37.5050 0010237 314.2549 45.7818 14.72218174811563 OCEANSAT 2 1 35931U 09051A 24263.87450666 -.00000039 00000-0 -57764-6 0 9994 2 35931 98.2555 303.4577 0016090 225.5508 134.4343 13.99498537790465 WORLDVIEW 2 1 35946U 09055A 24263.83493026 .00000570 00000-0 20728-3 0 9992 2 35946 98.4900 335.1607 0003282 326.0784 34.0192 14.36913106784483 SMOS 1 36036U 09059A 24263.78547741 .00000982 00000-0 32712-3 0 9998 2 36036 98.4439 89.3598 0000988 86.6457 273.4845 14.39788149782161 YAOGAN 7 1 36110U 09069A 24263.68806869 .00001721 00000-0 25328-3 0 9997 2 36110 98.0896 139.7633 0023883 286.2419 73.6163 14.76546313795839 TANDEM X 1 36605U 10030A 24262.44319403 .00005502 00000-0 26503-3 0 9999 2 36605 97.4461 268.2753 0001786 91.2975 268.8464 15.19148792789976 CARTOSAT 2B 1 36795U 10035A 24263.81068277 .00002308 00000-0 32150-3 0 9992 2 36795 97.8502 319.6537 0013098 91.5851 268.6860 14.78658002766036 YAOGAN 10 1 36834U 10038A 24263.86739792 .00002068 00000-0 25973-3 0 9999 2 36834 97.9471 280.4797 0001652 85.1395 38.7451 14.83217208763038 SKYMED 4 1 37216U 10060A 24263.83206702 .00001733 00000-0 22418-3 0 9995 2 37216 97.8898 85.6071 0001023 84.5141 275.6189 14.82157030750513 HAIYANG 2A 1 37781U 11043A 24263.74870050 .00000040 00000-0 82787-4 0 9993 2 37781 99.3306 265.7073 0001061 128.9844 231.1402 13.78800817659356 RASAT 1 37791U 11044D 24263.83479148 .00001869 00000-0 34344-3 0 9993 2 37791 98.0769 353.8538 0022003 47.3445 100.2053 14.66692818700017 SRMSAT 1 37841U 11058D 24263.53391347 .00000715 00000-0 24585-3 0 9990 2 37841 19.9723 306.1142 0011926 52.5067 99.0228 14.11211128667907 YAOGAN 13 1 37941U 11072A 24263.89628811 .00079543 00000-0 12487-2 0 9997 2 37941 97.7260 254.0029 0004908 94.7481 265.4331 15.53380926711121 PLEIADES 1 1 38012U 11076F 24263.82114869 .00001338 00000-0 29735-3 0 9999 2 38012 98.1968 337.0606 0001069 81.2514 57.5414 14.58584815679387 ZY 1 1 38038U 11079A 24263.85848689 .00001408 00000-0 48839-3 0 9991 2 38038 98.4892 331.0117 0007348 53.0440 79.3042 14.37097601667965 ZY 3 1 38046U 12001A 24263.83651010 .00030386 00000-0 85503-3 0 9990 2 38046 97.2353 323.9487 0005859 151.1119 209.0451 15.36410005705440 RISAT 1 1 38248U 12017A 24263.59462285 .00021430 00000-0 79404-3 0 9991 2 38248 97.5199 281.5446 0000422 196.7587 163.3638 15.27657927683994 KOMPSAT 3 1 38338U 12025B 24263.86813810 .00001964 00000-0 39119-3 0 9993 2 38338 98.2695 210.2916 0008968 310.0992 49.9423 14.63156549658589 KANOPUS-V 1 1 38707U 12039A 24263.57233873 .00144435 00000-0 14220-2 0 9997 2 38707 97.4960 206.5901 0007624 104.4698 255.7407 15.65484078675888 EXACTVIEW-1 1 38709U 12039C 24263.71742174 .00000511 00000-0 23979-3 0 9992 2 38709 98.9509 357.3561 0010675 198.1249 161.9550 14.24559599632216 SPOT 6 1 38755U 12047A 24263.81051772 .00001513 00000-0 33564-3 0 9994 2 38755 98.2137 329.4181 0001308 80.7947 279.3400 14.58512744640461 PLEIADES 1B 1 39019U 12068A 24263.82898883 .00001341 00000-0 29814-3 0 9996 2 39019 98.1889 337.0036 0001189 90.7546 269.3790 14.58585445628235 GOKTURK 2 1 39030U 12073A 24263.85807297 .00001627 00000-0 25348-3 0 9992 2 39030 97.7399 120.5750 0000991 101.8248 258.3073 14.74211753630882 LANDSAT 8 1 39084U 13008A 24263.83210699 .00001292 00000-0 29678-3 0 9990 2 39084 98.2208 332.2617 0001206 85.2087 274.9249 14.57116320617199 SARAL 1 39086U 13009A 24263.79664331 .00000401 00000-0 16404-3 0 9998 2 39086 98.5530 87.6197 0002337 34.2501 325.8833 14.32510826604628 GAOFEN 1 1 39150U 13018A 24263.87117143 .00002416 00000-0 35338-3 0 9998 2 39150 97.9816 335.1936 0020422 152.1654 208.0653 14.76452775614535 VNREDSAT 1 1 39160U 13021B 24263.79794761 .00002112 00000-0 41217-3 0 9997 2 39160 97.9882 327.8021 0001266 85.6936 274.4411 14.63958521607290 KOMPSAT 5 1 39227U 13042A 24263.81141483 .00004886 00000-0 35263-3 0 9998 2 39227 97.6194 88.3941 0002072 114.5693 245.5749 15.04569667608384 SKYSAT 1 1 39418U 13066C 24263.12831258 .00005431 00000-0 37093-3 0 9996 2 39418 97.4762 320.6060 0023999 346.9597 13.1007 15.06345932592482 DUBAISAT 2 1 39419U 13066D 24263.82635968 .00009052 00000-0 69508-3 0 9993 2 39419 97.4236 264.5300 0014360 46.9465 313.2960 15.01895241590720 GPM 1 39574U 14009C 24263.58642885 .00014509 00000-0 31368-3 0 9998 2 39574 64.9815 276.9833 0011845 270.3545 89.6238 15.44649774599635 SENTINEL 1A 1 39634U 14016A 24263.84772456 .00000467 00000-0 10868-3 0 9990 2 39634 98.1831 269.5832 0001367 89.4500 270.6856 14.59200120557392 KAZEOSAT 1 1 39731U 14024A 24263.78905523 .00000795 00000-0 25542-3 0 9992 2 39731 98.3884 338.6581 0001149 88.1347 271.9974 14.42010483547030 ALOS 2 1 39766U 14029A 24263.86381768 .00005062 00000-0 68420-3 0 9997 2 39766 97.9230 359.1496 0001550 101.0036 259.1350 14.79469687557678 KAZEOSAT 2 1 40010U 14033A 24263.87306131 .00001954 00000-0 24751-3 0 9993 2 40010 97.6060 124.4276 0010253 256.7584 103.2487 14.82815058554707 HODOYOSHI 4 1 40011U 14033B 24263.86846276 .00003657 00000-0 43375-3 0 9997 2 40011 97.5721 108.8855 0023529 246.7796 113.0941 14.84898869554419 DEIMOS 2 1 40013U 14033D 24263.86336115 .00004315 00000-0 45695-3 0 9994 2 40013 97.6652 147.6613 0001100 69.8428 290.2908 14.89647781555855 HODOYOSHI 3 1 40015U 14033F 24263.44527961 .00003727 00000-0 47224-3 0 9997 2 40015 97.5988 84.3968 0033591 286.8674 72.8857 14.81941409553335 SPOT 7 1 40053U 14034A 24263.80505437 .00001671 00000-0 36028-3 0 9990 2 40053 98.1494 328.9769 0001510 86.4047 273.7326 14.59673913544415 SKYSAT 2 1 40072U 14037D 24263.48643269 .00002927 00000-0 35252-3 0 9997 2 40072 98.3266 179.4171 0006237 162.7074 197.4353 14.84701895551510 WORLDVIEW 3 1 40115U 14048A 24263.53942138 .00003099 00000-0 37705-3 0 9996 2 40115 97.8700 335.5879 0005015 265.2490 94.8152 14.84164585547576 YAOGAN 21 1 40143U 14053A 24263.15059639 .00015244 00000-0 63167-3 0 9992 2 40143 97.2428 318.0443 0009192 211.2649 148.8043 15.23952787558088 YAOGAN 22 1 40275U 14063A 24263.61836757 -.00000004 00000-0 11117-3 0 9991 2 40275 100.6778 36.1474 0006466 176.9011 183.2141 13.15490296476244 ASNARO 1 40298U 14070A 24263.84256065 .00026678 00000-0 12433-2 0 9992 2 40298 97.4052 343.6263 0008991 190.1056 170.0000 15.19826085547546 HODOYOSHI 1 1 40299U 14070B 24263.85216666 .00058841 00000-0 82615-3 0 9994 2 40299 97.1276 323.2513 0006736 64.5022 295.6929 15.56513176549806 CHUBUSAT 1 1 40300U 14070C 24263.69072911 .00085279 00000-0 10030-2 0 9998 2 40300 97.0704 303.6878 0009378 70.6016 289.6255 15.61099981549361 TSUBAME 1 40302U 14070E 24263.87407106 .00205654 00000-0 14389-2 0 9990 2 40302 97.1027 271.1058 0016688 119.9986 240.2938 15.73469541548025 YAOGAN 23 1 40305U 14071A 24263.88366447 .00123472 00000-0 12655-2 0 9998 2 40305 97.6910 256.1740 0005558 101.2092 258.9791 15.64548582547127 CBERS-4 1 40336U 14079A 24263.84477846 .00000497 00000-0 18766-3 0 9993 2 40336 98.3917 329.6678 0001889 79.7918 280.3481 14.35506698512824 RESURS P2 1 40360U 14087A 24263.80874874 .00068265 00000-0 60615-3 0 9994 2 40360 97.1458 351.4602 0004120 291.1683 68.9139 15.68330806545849 YAOGAN 26 1 40362U 14088A 24263.83833413 .00022928 00000-0 93698-3 0 9997 2 40362 97.0799 279.5984 0012958 141.0976 219.1197 15.24293995541712 SMAP 1 40376U 15003A 24263.52421005 .00001724 00000-0 34250-3 0 9996 2 40376 98.1310 268.5887 0001791 97.3914 262.7492 14.63388324514654 KOMPSAT 3A 1 40536U 15014A 24263.87221112 .00020118 00000-0 79998-3 0 9997 2 40536 97.6212 215.4890 0002893 30.5138 329.6267 15.25321202524120 SENTINEL 2A 1 40697U 15028A 24263.78794319 .00000494 00000-0 20502-3 0 9996 2 40697 98.5710 336.6863 0001039 93.7513 266.3788 14.30813430482870 CARBONITE 1 1 40718U 15032D 24263.85768792 .00004478 00000-0 60648-3 0 9990 2 40718 97.6527 99.4406 0014574 211.4805 148.5536 14.79356812495255 YAOGAN 27 1 40878U 15040A 24263.78974782 -.00000013 00000-0 78053-4 0 9998 2 40878 100.0829 268.1633 0007681 238.5590 121.4773 13.16026699435585 LAPAN A2 1 40931U 15052B 24248.77622707 .00001594 00000-0 12789-3 0 9997 2 40931 5.9975 143.8985 0012167 132.8017 227.3134 14.78024499483365 YAOGAN 28 1 41026U 15064A 24263.88981664 .00020639 00000-0 84575-3 0 9998 2 41026 97.2239 50.6195 0008217 198.6852 161.4086 15.24272175493907 YAOGAN 29 1 41038U 15069A 24263.84822620 .00001411 00000-0 18484-3 0 9991 2 41038 98.0546 278.8190 0000481 7.6235 352.4984 14.81953202476480 KENT RIDGE 1 1 41167U 15077B 24263.72262733 .00007360 00000-0 33229-3 0 9996 2 41167 14.9808 290.9365 0009664 310.2519 49.6956 15.16326980484388 TELEOS 1 1 41169U 15077D 24263.42648714 .00040627 00000-0 10452-2 0 9997 2 41169 14.9776 180.7695 0004890 161.2448 198.8056 15.37240872485340 JASON 3 1 41240U 16002A 24263.58272323 .00000000 00000-0 26311-3 0 9995 2 41240 66.0448 15.2829 0007925 265.1524 94.8586 12.80930394405598 SENTINEL 3A 1 41335U 16011A 24263.83972718 .00000452 00000-0 20475-3 0 9999 2 41335 98.6312 329.2687 0000962 103.1927 256.9361 14.26727811447460 SENTINEL 1B 1 41456U 16025A 24263.85242932 .00004803 00000-0 47156-3 0 9997 2 41456 98.1778 288.3208 0019622 77.1907 283.1502 14.92545267448758 ZY 3 2 1 41556U 16033A 24263.08140017 .00013668 00000-0 60232-3 0 9992 2 41556 97.4492 337.5055 0003475 233.0128 127.0791 15.21923593461271 CARTOSAT 2C 1 41599U 16040A 24263.40738328 .00009826 00000-0 46665-3 0 9996 2 41599 97.4637 321.4340 0013960 190.3199 169.7751 15.19352166457184 SKYSAT C1 1 41601U 16040C 24263.41291748 .00016816 00000-0 57751-3 0 9996 2 41601 97.0515 319.1270 0005813 98.6600 261.5300 15.30172866460556 LAPAN A3 1 41603U 16040E 24263.81364574 .00006889 00000-0 26666-3 0 9990 2 41603 97.1425 273.3138 0013636 120.9980 239.2601 15.26400661457650 BIROS 1 41604U 16040F 24263.54193068 .00023140 00000-0 53728-3 0 9997 2 41604 97.1175 289.5007 0009894 73.1530 287.0802 15.42318624458704 SKYSAT C4 1 41771U 16058B 24263.57899883 .00019690 00000-0 58981-3 0 9993 2 41771 96.9991 306.3921 0002554 125.8355 234.3126 15.34538567447692 SKYSAT C5 1 41772U 16058C 24263.12065170 .00019954 00000-0 55093-3 0 9993 2 41772 97.1468 315.6225 0003103 85.3021 274.8578 15.37095409446107 SKYSAT C2 1 41773U 16058D 24263.69656715 .00018337 00000-0 59171-3 0 9992 2 41773 97.0019 304.7586 0002055 167.0691 193.0605 15.32182333447577 SKYSAT C3 1 41774U 16058E 24263.14835117 .00024950 00000-0 59961-3 0 9993 2 41774 96.9994 313.3116 0004765 186.6885 173.4300 15.41303433448116 ALSAT 1B 1 41785U 16059C 24263.80762839 .00001273 00000-0 21390-3 0 9997 2 41785 97.8138 288.4093 0011021 105.1613 255.0814 14.71221843427112 PATHFINDER 1 1 41787U 16059E 24263.76800716 .00002031 00000-0 37754-3 0 9995 2 41787 97.8282 281.4772 0030841 71.6119 288.8435 14.65875805426556 GOKTURK-1A 1 41875U 16073A 24263.91080376 .00001538 00000-0 31091-3 0 9997 2 41875 98.1362 156.9829 0001445 83.9483 276.1883 14.62764203415959 RESOURCESAT 2A 1 41877U 16074A 24263.80949472 .00000526 00000-0 25946-3 0 9997 2 41877 98.6381 335.3239 0002176 90.8249 269.3178 14.21663022404034 CARTOSAT 2D 1 41948U 17008A 24263.57137221 .00010372 00000-0 49616-3 0 9999 2 41948 97.4155 321.2093 0006014 302.0843 57.9807 15.19156011421070 SENTINEL 2B 1 42063U 17013A 24263.61304643 .00000505 00000-0 20925-3 0 9992 2 42063 98.5622 336.5075 0001068 92.1181 268.0124 14.30835776393760 ZHUHAI-1 02 1 42759U 17034B 24263.87509654 .00038977 00000-0 11758-2 0 9991 2 42759 43.0165 49.5985 0013611 269.4582 90.4713 15.33546318401914 NUSAT-3 1 42760U 17034C 24263.81257159 .00041976 00000-0 11121-2 0 9994 2 42760 43.0078 32.3490 0016926 293.5034 66.4043 15.37517979402120 ZHUHAI-1 01 1 42761U 17034D 24263.86787723 .00038447 00000-0 11531-2 0 9999 2 42761 43.0205 47.9085 0013482 280.3303 79.6031 15.33737154401927 CARTOSAT 2E 1 42767U 17036C 24263.39069643 .00010879 00000-0 51763-3 0 9990 2 42767 97.4277 321.2840 0004696 3.9742 356.1529 15.19335167401618